PBO Station Position Time Series. Reference Frame : NAM14
Format Version,1.1.0
4-character ID,MUSB
Station name,MUSB_BARD_CN1997
Begin Date, 1997-11-05
End Date, 2019-10-07
Release Date, 2019-10-08
Reference position, 37.1699408437 North Latitude, -119.3093510979 East Longitude, 2042.52120 meters elevation,
Date, North (mm), East (mm), Vertical (mm), North Std. Deviation (mm), East Std. Deviation (mm),              Vertical Std. Deviation (mm), Quality,
1997-11-05,0.00, 0.00, 27.11, 5.15, 4.44, 21.61, repro,
1997-11-06,0.99, -0.85, 0.00, 2.78, 2.23, 10.32, repro,
1997-11-07,1.10, 1.15, -0.04, 2.56, 2.14, 9.31, repro,
1997-11-08,0.61, -1.59, 5.02, 2.33, 1.93, 8.70, repro,
1997-11-09,1.43, 0.58, 12.35, 2.35, 1.99, 8.94, repro,
1997-11-10,-0.10, 0.86, 5.25, 2.38, 2.03, 9.20, repro,
1997-11-11,3.55, 0.57, 14.47, 2.50, 2.11, 9.83, repro,
1997-11-12,3.11, -2.68, 4.54, 2.38, 1.98, 9.06, repro,
1997-11-13,1.62, 0.92, 21.30, 2.36, 1.98, 8.96, repro,
1997-11-14,0.92, 0.39, 10.16, 2.50, 2.03, 9.38, repro,
1997-11-15,-1.56, -1.21, 5.24, 2.41, 1.96, 8.99, repro,
1997-11-16,-2.84, -1.65, 2.28, 2.37, 1.98, 9.19, repro,
1997-11-17,-3.04, 0.16, 13.26, 2.44, 2.10, 9.42, repro,
1997-11-18,3.02, 0.22, 24.07, 2.49, 2.11, 9.62, repro,
1997-11-19,0.41, -0.35, 11.29, 2.54, 2.13, 9.99, repro,
1997-11-20,1.58, 1.33, 6.94, 3.13, 2.62, 11.83, repro,
1997-11-21,-1.78, -1.16, 4.43, 2.96, 2.27, 11.36, repro,
1997-11-22,-0.44, -0.45, 24.81, 2.69, 2.23, 10.42, repro,
1997-11-23,1.73, -3.29, 3.39, 2.58, 2.07, 9.51, repro,
1997-11-24,0.20, -1.01, 14.55, 2.61, 2.04, 9.50, repro,
1997-11-25,-0.69, 1.20, 17.95, 2.42, 2.00, 9.25, repro,
1997-11-26,0.56, -0.70, 0.16, 2.62, 2.07, 9.84, repro,
1997-11-27,6.52, 0.18, 13.72, 2.49, 2.07, 9.60, repro,
1997-11-28,2.28, -1.16, 13.24, 2.44, 2.01, 9.32, repro,
1997-11-29,1.65, -1.65, -0.89, 2.51, 2.09, 9.28, repro,
1997-11-30,-1.22, -3.24, 9.37, 2.38, 1.96, 8.86, repro,
1997-12-01,0.85, -1.54, 12.41, 2.48, 2.01, 9.26, repro,
1997-12-02,0.88, -3.08, 8.96, 2.63, 2.20, 9.51, repro,
1997-12-03,0.24, -0.34, 11.15, 2.50, 2.08, 9.73, repro,
1997-12-04,-1.00, -0.59, 7.97, 2.40, 2.04, 9.24, repro,
1997-12-05,-0.68, -0.84, 7.81, 2.52, 1.99, 9.34, repro,
1997-12-06,-1.75, 0.75, -5.38, 2.55, 2.08, 9.64, repro,
1997-12-07,1.34, -4.54, -2.72, 2.51, 2.12, 9.13, repro,
1997-12-08,2.45, 2.33, -1.76, 2.41, 1.99, 9.00, repro,
1997-12-09,1.92, 1.87, -6.59, 2.32, 1.92, 8.68, repro,
1997-12-10,-2.10, -2.73, -9.69, 2.46, 1.95, 9.24, repro,
1997-12-11,0.15, -2.40, -9.63, 2.33, 1.96, 8.86, repro,
1997-12-12,1.95, -1.18, -5.37, 2.28, 1.89, 8.60, repro,
1997-12-13,1.68, -0.88, -4.30, 2.33, 1.92, 8.97, repro,
1997-12-14,1.65, -0.85, 6.70, 2.25, 1.89, 8.78, repro,
1997-12-15,0.84, -2.77, 3.45, 2.45, 2.04, 9.48, repro,
1997-12-16,1.89, -2.80, -5.51, 2.44, 1.97, 9.16, repro,
1997-12-17,3.89, -1.06, 7.33, 2.50, 2.06, 9.45, repro,
1997-12-18,3.95, -1.43, 2.01, 2.36, 1.96, 8.68, repro,
1997-12-19,1.42, -2.77, 1.78, 2.35, 2.07, 8.59, repro,
1997-12-20,2.77, -1.52, 1.15, 2.37, 1.96, 8.57, repro,
1997-12-21,-0.37, -2.64, -2.59, 2.34, 1.96, 8.66, repro,
1997-12-22,-1.48, -5.57, -10.83, 2.30, 1.94, 8.63, repro,
1997-12-23,0.84, -0.12, -5.24, 2.36, 2.02, 8.87, repro,
1997-12-24,-0.04, -4.52, 2.42, 2.26, 1.96, 8.43, repro,
1997-12-25,1.80, -4.23, -0.75, 2.35, 1.91, 8.49, repro,
1997-12-26,4.29, -2.55, -7.21, 2.34, 1.92, 8.47, repro,
1997-12-27,0.27, -1.42, -8.69, 2.23, 1.90, 8.45, repro,
1997-12-28,0.77, -1.08, -9.03, 2.33, 1.98, 8.63, repro,
1997-12-29,1.67, -1.00, -4.06, 2.29, 1.97, 8.60, repro,
1997-12-30,1.64, -0.67, -3.67, 2.41, 2.15, 9.02, repro,
1997-12-31,0.43, -0.50, -1.17, 2.37, 2.10, 8.98, repro,
1998-01-01,-1.92, -2.38, -6.64, 2.34, 1.97, 8.72, repro,
1998-01-02,-1.22, -2.19, 2.72, 2.28, 1.98, 8.57, repro,
1998-01-03,-0.65, -3.42, -5.79, 2.24, 1.90, 8.64, repro,
1998-01-04,2.48, -2.48, -12.35, 2.18, 1.84, 8.18, repro,
1998-01-05,2.27, -2.38, -21.37, 2.33, 2.05, 8.72, repro,
1998-01-06,3.50, -60.92, -9.60, 25.00, 93.67, 62.32, repro,
1998-01-07,3.25, -2.99, -17.99, 2.42, 2.09, 8.95, repro,
1998-01-08,0.22, -1.26, -10.33, 2.41, 2.08, 9.21, repro,
1998-01-09,-1.55, -1.81, -4.86, 2.28, 1.97, 8.65, repro,
1998-01-10,0.70, -0.51, -5.47, 2.37, 2.06, 9.07, repro,
1998-01-11,3.08, -1.96, -14.88, 2.47, 2.17, 9.37, repro,
1998-01-12,2.01, -2.24, -15.15, 2.46, 2.08, 9.32, repro,
1998-01-13,2.73, -2.01, -13.03, 4.00, 3.70, 16.01, repro,
1998-01-14,2.45, -2.28, -13.23, 2.23, 1.92, 8.45, repro,
1998-01-15,1.53, -2.64, -4.24, 2.34, 1.99, 8.91, repro,
1998-01-16,2.55, -3.79, -4.83, 2.49, 2.23, 9.48, repro,
1998-01-17,2.06, -2.83, -6.60, 2.33, 2.02, 8.85, repro,
1998-01-18,0.22, -2.13, -5.59, 2.38, 2.00, 8.95, repro,
1998-01-19,5.70, -2.48, -19.77, 2.28, 1.98, 8.45, repro,
1998-01-20,0.99, -3.13, -10.51, 2.21, 1.88, 8.25, repro,
1998-01-21,3.65, 1.30, -11.65, 4.05, 3.70, 15.69, repro,
1998-01-22,0.57, -0.50, -0.07, 2.32, 1.98, 8.77, repro,
1998-01-23,-0.62, -0.94, -2.48, 2.34, 1.99, 9.06, repro,
1998-01-24,-0.03, -1.99, -13.45, 2.35, 1.95, 8.59, repro,
1998-01-25,3.01, -1.31, 2.72, 2.35, 1.98, 8.65, repro,
1998-01-26,1.28, -1.81, -10.76, 2.26, 1.88, 8.37, repro,
1998-01-27,-0.24, -1.92, -5.17, 2.34, 2.01, 8.73, repro,
1998-01-28,0.79, -0.27, -3.46, 2.51, 2.14, 9.37, repro,
1998-01-29,1.99, 1.16, -3.93, 2.57, 2.19, 9.67, repro,
1998-01-30,0.91, 1.13, -3.01, 2.37, 2.04, 8.87, repro,
1998-01-31,0.48, -1.96, -9.97, 2.32, 1.94, 8.38, repro,
1998-02-01,0.69, -1.13, -0.87, 2.40, 1.96, 8.64, repro,
1998-02-02,5.47, -0.47, -12.81, 2.27, 1.90, 8.47, repro,
1998-02-03,0.01, -1.14, -18.38, 2.22, 1.89, 8.32, repro,
1998-02-04,2.93, -2.55, 9.55, 2.32, 1.90, 8.63, repro,
1998-02-05,-1.58, -2.34, -7.09, 2.33, 1.95, 8.78, repro,
1998-02-06,-2.18, -2.36, -3.85, 2.24, 1.87, 8.30, repro,
1998-02-07,-0.86, -0.40, -21.56, 2.32, 1.99, 8.85, repro,
1998-02-08,4.14, -2.87, -25.36, 2.36, 1.96, 8.86, repro,
1998-02-09,2.80, -1.61, 0.82, 2.47, 2.12, 9.58, repro,
1998-02-10,-3.80, -1.20, -7.45, 2.37, 1.98, 9.02, repro,
1998-02-11,-4.87, -1.83, 7.24, 2.33, 1.89, 8.82, repro,
1998-02-12,-6.37, 0.25, 14.96, 2.29, 1.88, 8.53, repro,
1998-02-13,-5.12, -6.56, 26.83, 2.35, 1.98, 8.91, repro,
1998-02-14,-1.16, -5.31, 29.41, 2.36, 1.97, 9.15, repro,
1998-02-15,-6.64, -7.09, 49.09, 2.20, 1.87, 8.28, repro,
1998-02-16,-5.09, -5.41, 68.45, 2.35, 2.02, 8.90, repro,
1998-02-17,-0.56, -5.11, 78.20, 2.44, 2.01, 9.19, repro,
1998-02-18,-1.03, -7.64, 70.11, 2.49, 2.08, 9.29, repro,
1998-02-19,-3.91, -9.77, 70.29, 2.34, 1.98, 9.01, repro,
1998-02-20,-2.86, -4.52, 72.76, 2.39, 2.02, 9.20, repro,
1998-02-21,-4.19, -4.48, 64.25, 2.28, 2.00, 8.90, repro,
1998-02-22,-0.75, -9.08, 101.11, 2.35, 1.98, 9.04, repro,
1998-02-23,0.50, -14.18, 108.94, 2.31, 1.95, 8.84, repro,
1998-02-24,-1.49, -21.97, 149.87, 2.20, 1.87, 8.40, repro,
1998-02-25,-4.17, -20.47, 137.39, 2.21, 1.87, 8.25, repro,
1998-02-26,-7.10, -25.79, 157.76, 2.27, 2.03, 8.94, repro,
1998-02-27,-5.12, -21.44, 142.30, 2.22, 1.93, 8.58, repro,
1998-02-28,-5.25, -21.81, 135.55, 2.32, 2.00, 8.91, repro,
1998-03-01,-12.63, -18.67, 140.74, 2.35, 2.02, 9.03, repro,
1998-03-02,-14.43, -11.95, 142.85, 2.25, 1.92, 8.63, repro,
1998-03-03,-11.16, -13.96, 136.84, 2.30, 1.96, 8.94, repro,
1998-03-04,-12.98, -13.61, 141.37, 2.20, 1.87, 8.49, repro,
1998-03-05,-13.37, -9.31, 114.43, 2.21, 1.86, 8.32, repro,
1998-03-06,-6.92, -10.99, 129.04, 2.21, 1.89, 8.33, repro,
1998-03-07,-3.12, -18.42, 133.09, 2.21, 1.92, 8.37, repro,
1998-03-08,-2.09, -20.13, 132.19, 2.31, 2.01, 8.81, repro,
1998-03-09,-4.57, -24.19, 138.49, 2.26, 1.91, 8.67, repro,
1998-03-10,-1.65, -28.70, 131.69, 3.11, 2.77, 12.91, repro,
1998-03-11,-7.91, -20.46, 129.15, 2.32, 2.02, 9.00, repro,
1998-03-12,-5.69, -25.62, 123.15, 2.29, 1.94, 8.58, repro,
1998-03-13,-2.06, -25.74, 124.27, 2.24, 1.93, 8.48, repro,
1998-03-14,0.04, -21.95, 144.57, 2.20, 1.85, 8.29, repro,
1998-03-15,-10.35, -22.35, 167.50, 2.30, 1.91, 8.88, repro,
1998-03-16,-13.45, -9.03, 301.44, 2.46, 1.98, 10.16, repro,
1998-03-17,-8.40, -8.77, 201.07, 2.30, 1.99, 8.89, repro,
1998-03-18,-1.58, -2.35, 31.41, 2.23, 1.86, 8.38, repro,
1998-03-19,3.73, 0.27, -22.92, 2.35, 2.06, 8.95, repro,
1998-03-20,1.03, -1.05, -17.57, 2.27, 1.96, 8.66, repro,
1998-03-21,-1.02, -2.06, -16.97, 2.15, 1.80, 8.01, repro,
1998-03-22,0.09, -1.86, -26.76, 2.22, 1.88, 8.27, repro,
1998-03-23,4.31, -1.07, -28.30, 4.00, 3.40, 14.87, repro,
1998-03-24,2.71, 2.39, -13.95, 2.29, 1.96, 8.38, repro,
1998-03-25,1.88, -0.53, 17.38, 2.34, 2.01, 8.93, repro,
1998-03-26,-1.15, -2.31, -6.70, 2.34, 1.94, 8.74, repro,
1998-03-27,0.67, -2.48, -21.74, 2.28, 1.95, 8.49, repro,
1998-03-28,1.63, 0.41, -15.75, 2.30, 1.91, 8.51, repro,
1998-03-29,0.28, -0.16, 13.81, 2.22, 1.87, 8.22, repro,
1998-03-30,-3.96, -3.29, 8.74, 2.29, 1.94, 8.66, repro,
1998-03-31,-0.61, 2.89, 20.51, 2.37, 2.03, 9.31, repro,
1998-04-01,-2.44, -1.35, 52.83, 2.20, 1.89, 8.37, repro,
1998-04-02,-4.54, -2.91, 66.82, 2.31, 1.97, 8.68, repro,
1998-04-03,-0.57, -4.72, 58.11, 2.29, 1.96, 8.53, repro,
1998-04-04,-7.54, -5.00, 61.45, 2.30, 1.96, 8.71, repro,
1998-04-05,-10.18, -12.53, 78.47, 2.25, 1.94, 8.66, repro,
1998-04-06,-9.19, -8.09, 73.11, 2.30, 2.01, 8.65, repro,
1998-04-07,-3.59, -12.05, 58.19, 2.37, 2.08, 9.07, repro,
1998-04-08,-3.28, -15.13, 72.61, 2.49, 2.25, 9.73, repro,
1998-04-09,-0.61, -5.11, 45.55, 2.36, 2.02, 9.00, repro,
1998-04-10,-18.77, 2.49, 78.99, 2.46, 2.02, 9.32, repro,
1998-04-11,-21.91, 1.56, 123.02, 2.51, 2.08, 9.33, repro,
1998-04-12,-19.17, -1.05, 161.20, 2.36, 2.00, 8.90, repro,
1998-04-13,-8.82, -3.36, 150.04, 2.32, 2.00, 8.91, repro,
1998-04-14,-8.52, -1.98, 128.07, 2.21, 1.87, 8.19, repro,
1998-04-15,-5.71, 2.01, 116.34, 2.30, 1.88, 8.51, repro,
1998-04-16,-6.36, -2.88, 112.03, 2.26, 1.90, 8.41, repro,
1998-04-17,-8.75, -2.87, 99.37, 2.29, 1.90, 8.37, repro,
1998-04-18,-9.11, 2.03, 106.12, 2.39, 1.93, 8.98, repro,
1998-04-19,-7.62, 2.68, 80.74, 2.25, 1.92, 8.60, repro,
1998-04-20,2.65, -2.41, -27.83, 2.23, 1.90, 8.54, repro,
1998-04-21,1.98, -1.24, -17.50, 2.32, 1.95, 8.60, repro,
1998-04-22,0.65, -2.33, -22.21, 2.30, 1.96, 8.61, repro,
1998-04-23,1.97, -3.07, -22.09, 2.15, 1.82, 8.09, repro,
1998-04-24,1.32, -2.77, -30.12, 2.21, 1.88, 8.20, repro,
1998-04-25,-0.19, -2.39, -14.50, 2.13, 1.83, 7.97, repro,
1998-04-26,-0.28, -0.29, -14.18, 2.14, 1.83, 8.05, repro,
1998-04-27,1.93, -3.62, -23.86, 2.16, 1.85, 8.13, repro,
1998-04-28,1.68, -4.27, -22.30, 2.18, 1.88, 8.24, repro,
1998-04-29,-0.22, -0.33, -11.40, 2.25, 1.88, 8.36, repro,
1998-04-30,0.96, -2.79, -11.34, 2.18, 1.82, 8.11, repro,
1998-05-01,0.54, 0.02, -12.72, 2.20, 1.92, 8.35, repro,
1998-05-02,1.17, -0.93, -18.36, 2.30, 2.05, 8.81, repro,
1998-05-03,-0.26, -1.57, -12.02, 2.17, 1.85, 8.20, repro,
1998-05-04,-1.44, -2.30, -15.48, 2.20, 1.84, 8.18, repro,
1998-05-05,1.93, -2.92, -19.99, 2.20, 1.91, 8.27, repro,
1998-05-06,0.54, -2.94, -8.19, 2.21, 1.93, 8.37, repro,
1998-05-07,1.81, -1.96, -21.17, 2.34, 1.98, 8.75, repro,
1998-05-08,0.89, -2.79, -13.21, 2.21, 1.85, 8.22, repro,
1998-05-09,1.08, -3.93, -18.66, 2.18, 1.86, 8.31, repro,
1998-05-10,-0.13, -2.96, -6.70, 2.15, 1.81, 8.08, repro,
1998-05-11,-0.06, -3.50, -8.83, 2.14, 1.82, 8.10, repro,
1998-05-12,3.94, -2.93, -11.77, 2.18, 1.86, 8.24, repro,
1998-05-13,0.52, -3.52, 0.27, 2.18, 1.85, 8.22, repro,
1998-05-14,-2.37, -1.30, -10.92, 2.19, 1.82, 8.04, repro,
1998-05-15,-0.35, -3.84, -16.76, 2.28, 2.01, 8.68, repro,
1998-05-16,1.02, -2.73, -10.11, 2.14, 1.81, 8.11, repro,
1998-05-17,1.28, -2.53, -6.23, 2.18, 1.88, 8.13, repro,
1998-05-18,2.44, -2.53, -17.45, 2.24, 1.96, 8.46, repro,
1998-05-19,1.14, -3.26, -12.46, 2.22, 1.90, 8.35, repro,
1998-05-20,-0.21, -3.63, -13.56, 2.25, 1.93, 8.34, repro,
1998-05-21,1.61, -2.87, -13.18, 2.23, 1.90, 8.30, repro,
1998-05-22,0.46, -4.71, -10.37, 2.19, 1.89, 8.24, repro,
1998-05-23,0.90, -1.40, -14.70, 2.24, 1.95, 8.46, repro,
1998-05-24,0.97, -2.93, -23.05, 2.17, 1.89, 8.20, repro,
1998-05-25,0.92, -3.88, -22.77, 2.19, 1.90, 8.30, repro,
1998-05-26,0.57, -3.51, -11.14, 2.24, 1.96, 8.56, repro,
1998-05-27,-0.18, -4.10, -4.92, 2.20, 1.90, 8.42, repro,
1998-05-28,1.05, -2.87, -9.72, 2.26, 1.99, 8.60, repro,
1998-05-29,-1.26, -2.90, -22.84, 2.20, 1.93, 8.23, repro,
1998-05-30,-0.84, -3.27, -16.37, 2.30, 2.02, 8.48, repro,
1998-05-31,-0.46, -0.34, -11.13, 2.22, 1.91, 8.30, repro,
1998-06-01,0.59, -1.21, -8.73, 2.53, 2.10, 9.43, repro,
1998-06-02,1.34, -0.40, -7.47, 2.39, 2.14, 9.03, repro,
1998-06-03,-0.74, -1.73, -15.48, 2.24, 1.93, 8.36, repro,
1998-06-04,1.47, -2.99, -19.36, 2.26, 2.00, 8.51, repro,
1998-06-05,0.48, -1.35, -16.70, 2.28, 2.00, 8.56, repro,
1998-06-06,-1.04, -2.59, -1.68, 2.21, 1.90, 8.32, repro,
1998-06-07,1.74, -1.16, -19.80, 2.27, 2.01, 8.61, repro,
1998-06-08,-1.23, -3.90, -10.32, 2.20, 1.92, 8.25, repro,
1998-06-09,1.02, -3.51, -12.71, 2.20, 1.91, 8.31, repro,
1998-06-10,-0.98, -1.50, -9.96, 2.23, 1.88, 8.23, repro,
1998-06-11,-0.92, -3.15, -4.40, 2.18, 1.87, 8.19, repro,
1998-06-12,-1.49, -3.21, -5.24, 2.20, 1.93, 8.42, repro,
1998-06-13,-1.01, -1.48, -3.46, 2.15, 1.81, 8.02, repro,
1998-06-14,0.95, -3.70, -9.67, 2.16, 1.84, 8.15, repro,
1998-06-15,0.29, -2.20, -13.51, 2.23, 1.93, 8.30, repro,
1998-06-16,-0.05, -3.39, -6.00, 2.35, 2.14, 9.11, repro,
1998-06-17,0.80, -2.44, -3.82, 2.24, 2.00, 8.49, repro,
1998-06-18,0.17, -2.65, 0.98, 2.23, 1.93, 8.30, repro,
1998-06-19,-0.38, -1.83, -10.18, 2.16, 1.86, 8.15, repro,
1998-06-20,-1.09, -4.13, -15.19, 2.17, 1.88, 8.20, repro,
1998-06-21,-0.18, -4.11, -13.05, 2.23, 1.96, 8.43, repro,
1998-06-22,-0.50, -3.76, -19.58, 2.26, 1.90, 8.69, repro,
1998-06-23,-0.24, -3.91, -4.77, 2.24, 1.89, 8.48, repro,
1998-06-24,-0.92, -3.65, 1.00, 2.25, 1.98, 8.65, repro,
1998-06-25,-2.14, -5.40, -6.31, 2.26, 1.91, 8.45, repro,
1998-06-26,-1.67, -3.65, -0.95, 2.23, 1.97, 8.58, repro,
1998-06-27,-0.71, -3.62, -3.93, 2.32, 2.10, 8.98, repro,
1998-06-28,-0.82, -3.54, -2.30, 2.21, 1.91, 8.42, repro,
1998-06-29,-0.58, -1.88, -6.20, 2.23, 1.93, 8.36, repro,
1998-06-30,-0.99, -4.75, -16.69, 2.22, 1.95, 8.45, repro,
1998-07-01,-3.85, -1.05, -4.99, 4.23, 3.58, 16.78, repro,
1998-07-02,-0.78, -3.18, -17.42, 2.28, 1.98, 8.75, repro,
1998-07-03,-1.01, -6.00, -9.54, 2.21, 1.88, 8.34, repro,
1998-07-04,-1.39, -2.83, -4.35, 2.23, 1.93, 8.41, repro,
1998-07-05,-0.14, -4.03, -12.75, 2.26, 2.00, 8.62, repro,
1998-07-06,-1.16, -5.05, -14.45, 2.30, 1.97, 8.69, repro,
1998-07-07,0.38, -3.88, -18.87, 2.35, 1.99, 8.94, repro,
1998-07-10,-2.83, -8.74, -58.57, 6.08, 5.57, 26.72, repro,
1998-07-11,-1.95, -4.94, -9.30, 2.19, 1.86, 8.25, repro,
1998-07-12,0.27, -3.83, -13.45, 2.21, 1.88, 8.48, repro,
1998-07-13,0.74, -4.60, -8.13, 2.24, 1.96, 8.56, repro,
1998-07-14,-0.36, -4.66, -3.30, 2.24, 1.90, 8.52, repro,
1998-07-15,-2.54, -3.08, -2.39, 2.20, 1.87, 8.37, repro,
1998-07-16,0.05, -3.09, -10.64, 2.20, 1.85, 8.25, repro,
1998-07-17,-0.20, -2.91, -7.39, 2.18, 1.87, 8.22, repro,
1998-07-18,0.17, -3.56, -12.96, 2.21, 1.89, 8.34, repro,
1998-07-19,-0.83, -5.51, -3.12, 2.15, 1.83, 8.06, repro,
1998-07-20,3.63, -5.87, -6.24, 3.73, 3.55, 15.54, repro,
1998-07-21,-1.16, -4.11, -3.90, 2.17, 1.84, 8.19, repro,
1998-07-22,-1.21, -1.84, -9.08, 2.32, 1.90, 8.64, repro,
1998-07-23,0.06, -2.60, -4.72, 2.33, 1.92, 8.72, repro,
1998-07-24,0.51, -2.10, -0.58, 2.26, 1.94, 8.88, repro,
1998-07-25,0.37, -2.98, -17.81, 2.24, 1.89, 8.54, repro,
1998-07-26,0.21, -4.28, -22.76, 2.26, 1.97, 8.67, repro,
1998-07-27,1.12, -5.42, -20.90, 2.25, 1.91, 8.77, repro,
1998-07-28,0.26, -2.54, -8.54, 2.22, 1.93, 8.54, repro,
1998-07-29,1.31, -3.69, -15.79, 2.16, 1.87, 8.23, repro,
1998-07-30,0.05, -3.58, -12.61, 2.21, 1.87, 8.25, repro,
1998-07-31,-2.11, -5.91, -10.67, 2.29, 1.98, 8.74, repro,
1998-08-01,-0.21, -4.35, -11.18, 2.29, 1.98, 8.75, repro,
1998-08-02,0.07, -3.63, -12.03, 2.15, 1.87, 8.16, repro,
1998-08-03,0.12, -2.68, -11.38, 2.20, 1.88, 8.32, repro,
1998-08-04,-0.42, -3.72, -8.21, 2.22, 1.93, 8.50, repro,
1998-08-05,-0.39, -3.86, -7.57, 2.27, 1.97, 8.70, repro,
1998-08-06,-0.59, -3.88, -4.83, 2.20, 1.86, 8.21, repro,
1998-08-07,-0.41, -5.46, -18.43, 2.20, 1.86, 8.23, repro,
1998-08-08,0.29, -5.83, -1.90, 2.59, 2.52, 10.47, repro,
1998-08-09,1.61, -3.02, -3.53, 2.19, 1.88, 8.24, repro,
1998-08-10,0.66, -4.24, -2.66, 2.20, 1.89, 8.31, repro,
1998-08-11,-0.63, -3.91, -2.86, 2.19, 1.86, 8.16, repro,
1998-08-12,0.01, -4.20, -5.44, 2.20, 1.89, 8.35, repro,
1998-08-13,1.65, -3.54, -26.02, 2.58, 2.25, 10.12, repro,
1998-09-25,-4.85, -3.21, -9.01, 4.35, 3.88, 17.92, repro,
1998-09-26,-2.05, -4.79, -9.58, 2.37, 2.01, 8.86, repro,
1998-09-27,-1.13, -2.88, -7.00, 2.28, 1.95, 8.59, repro,
1998-09-28,-1.60, -4.14, -7.42, 2.33, 1.93, 8.53, repro,
1998-09-29,0.01, -2.22, -11.20, 2.28, 1.90, 8.37, repro,
1998-09-30,-1.69, -3.80, -0.73, 2.21, 1.86, 8.21, repro,
1998-10-01,-2.13, -5.16, -2.42, 2.35, 2.07, 8.82, repro,
1998-10-02,-0.89, -5.06, -11.63, 2.21, 1.87, 8.30, repro,
1998-10-03,-0.44, -3.62, -16.57, 2.43, 2.02, 9.02, repro,
1998-10-04,-3.75, -1.96, -4.34, 2.49, 2.05, 9.33, repro,
1998-10-05,-1.88, -3.73, 0.43, 2.35, 2.03, 8.90, repro,
1998-10-06,-0.90, -4.59, -3.99, 2.35, 2.01, 8.81, repro,
1998-10-07,-0.07, -3.44, 10.23, 2.42, 2.08, 9.06, repro,
1998-10-08,-0.55, -4.75, -2.37, 2.62, 2.21, 9.86, repro,
1998-10-09,-1.11, -4.98, -10.34, 2.81, 2.43, 10.37, repro,
1998-10-10,-0.53, -3.47, -8.73, 2.38, 2.07, 9.09, repro,
1998-10-11,-0.12, -3.06, -10.51, 2.40, 2.00, 8.91, repro,
1998-10-12,-1.08, -3.50, -6.53, 2.41, 2.00, 8.91, repro,
1998-10-13,0.86, -3.40, 1.94, 2.47, 2.13, 9.22, repro,
1998-10-14,-0.26, -2.72, -2.80, 2.38, 2.04, 8.92, repro,
1998-10-15,-1.79, -4.27, -2.13, 2.48, 2.05, 9.14, repro,
1998-10-16,-1.66, -3.50, -10.52, 2.42, 2.04, 8.84, repro,
1998-10-17,-0.04, -2.63, -12.79, 2.49, 2.11, 9.37, repro,
1998-10-18,-0.88, -1.11, -7.91, 2.48, 2.13, 9.36, repro,
1998-10-19,1.84, -0.82, -18.24, 2.61, 2.28, 9.57, repro,
1998-10-20,-0.16, -3.03, -7.55, 2.31, 1.98, 8.66, repro,
1998-10-21,0.32, -3.66, -11.19, 2.39, 2.04, 9.00, repro,
1998-10-22,-0.50, -2.16, -13.34, 2.42, 2.05, 8.87, repro,
1998-10-23,-2.38, -0.91, -19.25, 2.47, 2.08, 8.91, repro,
1998-10-24,-0.21, -3.59, -8.18, 2.81, 2.40, 10.65, repro,
1998-10-25,-0.44, -3.42, -14.88, 2.27, 1.96, 8.59, repro,
1998-10-26,0.50, -1.79, -10.62, 2.29, 2.01, 8.62, repro,
1998-10-27,-0.71, -1.71, -7.67, 2.42, 2.13, 9.11, repro,
1998-10-28,0.49, -3.11, -10.43, 2.30, 2.00, 8.51, repro,
1998-10-29,0.06, -2.47, 4.00, 2.27, 1.94, 8.53, repro,
1998-10-30,1.17, -4.59, -9.46, 2.26, 1.95, 8.62, repro,
1998-10-31,-0.38, -1.59, -5.66, 2.36, 2.02, 8.98, repro,
1998-11-01,-1.68, -0.62, -1.72, 2.35, 1.96, 8.66, repro,
1998-11-02,-4.79, -1.25, -0.95, 2.34, 2.00, 9.04, repro,
1998-11-03,-0.73, -2.88, -7.60, 2.53, 2.09, 9.50, repro,
1998-11-04,-2.89, -1.81, 0.49, 2.43, 2.15, 9.23, repro,
1998-11-05,-1.60, -3.26, 1.35, 2.44, 2.13, 9.18, repro,
1998-11-06,-1.58, -3.18, 3.64, 2.25, 1.95, 8.51, repro,
1998-11-07,0.49, -2.83, -11.59, 2.31, 1.97, 9.17, repro,
1998-11-08,1.32, -1.36, -20.69, 2.26, 1.97, 8.66, repro,
1998-11-09,-0.62, -3.73, -8.71, 2.19, 1.88, 8.28, repro,
1998-11-10,0.60, -2.33, -4.07, 2.35, 1.99, 8.81, repro,
1998-11-11,-0.49, -0.03, -11.03, 2.36, 2.05, 9.14, repro,
1998-11-12,-0.17, -1.31, -5.86, 2.33, 1.95, 8.83, repro,
1998-11-13,0.39, -2.15, -7.20, 2.37, 2.04, 8.95, repro,
1998-11-14,-1.29, -2.33, -8.50, 2.32, 1.93, 8.64, repro,
1998-11-15,-0.03, -1.32, 2.17, 2.26, 1.91, 8.53, repro,
1998-11-16,-1.06, -1.25, 2.49, 2.26, 1.91, 8.57, repro,
1998-11-17,-2.07, -1.79, -0.29, 2.34, 1.95, 8.81, repro,
1998-11-18,-2.43, -2.72, -8.87, 2.25, 1.89, 8.46, repro,
1998-11-19,-0.75, -2.66, -7.21, 2.28, 1.93, 8.71, repro,
1998-11-20,0.61, -3.28, -0.91, 2.22, 1.88, 8.31, repro,
1998-11-21,1.71, -1.00, -0.68, 2.43, 1.98, 9.09, repro,
1998-11-22,1.97, -1.94, -4.85, 2.42, 2.10, 9.15, repro,
1998-11-23,-0.73, -3.15, -5.68, 2.28, 1.94, 8.51, repro,
1998-11-24,-0.19, -3.04, -8.94, 2.28, 1.91, 8.60, repro,
1998-11-25,0.46, -3.46, -8.07, 2.23, 1.89, 8.32, repro,
1998-11-26,-0.49, -4.22, -2.55, 2.31, 1.94, 8.64, repro,
1998-11-27,0.74, -1.46, 2.46, 2.28, 1.90, 8.54, repro,
1998-11-28,-0.18, -4.43, -4.70, 2.28, 1.91, 8.61, repro,
1998-11-29,-3.42, -1.83, -3.30, 2.23, 1.88, 8.43, repro,
1998-11-30,0.36, -3.11, -7.18, 2.41, 2.02, 8.91, repro,
1998-12-01,-0.30, -4.22, -9.32, 2.36, 1.97, 8.69, repro,
1998-12-02,-0.42, -4.16, -7.49, 2.29, 1.90, 8.64, repro,
1998-12-03,2.36, -2.89, -8.04, 2.28, 1.89, 8.52, repro,
1998-12-04,-0.73, -4.37, -11.12, 2.35, 1.97, 8.64, repro,
1998-12-05,-1.43, -4.94, -10.06, 2.31, 1.91, 8.45, repro,
1998-12-06,-0.82, -2.93, -8.00, 2.23, 1.94, 8.36, repro,
1998-12-07,-0.54, -2.13, -11.68, 2.25, 1.97, 8.45, repro,
1998-12-08,1.54, -2.61, -16.35, 2.42, 2.12, 9.37, repro,
1998-12-09,0.66, -1.42, -14.09, 2.27, 1.98, 8.57, repro,
1998-12-10,-0.45, -2.93, -11.84, 2.28, 2.06, 8.81, repro,
1998-12-11,-1.20, -1.90, -8.77, 2.99, 2.60, 11.77, repro,
1998-12-12,-1.56, -3.38, -9.52, 2.36, 2.12, 9.07, repro,
1998-12-13,0.68, -2.87, -8.46, 2.32, 2.00, 8.85, repro,
1998-12-14,-0.22, -3.63, -5.31, 2.47, 2.05, 9.58, repro,
1998-12-15,-1.41, -3.22, -17.58, 2.87, 2.56, 11.04, repro,
1998-12-16,1.67, -2.01, -11.62, 2.52, 2.20, 9.61, repro,
1998-12-17,0.46, -0.44, -8.85, 2.87, 2.71, 12.14, repro,
1998-12-18,0.68, -3.40, -5.71, 2.51, 2.14, 9.65, repro,
1998-12-19,0.40, -3.61, -14.05, 2.28, 1.98, 8.80, repro,
1998-12-20,-0.32, -3.72, 1.48, 2.27, 1.95, 8.61, repro,
1998-12-21,0.98, -4.96, -8.83, 2.34, 2.10, 8.88, repro,
1998-12-22,-0.86, -2.14, -14.50, 2.32, 1.98, 8.77, repro,
1998-12-23,0.15, -3.29, -16.14, 2.41, 2.14, 9.15, repro,
1998-12-24,1.29, -2.44, -14.71, 2.38, 2.02, 9.06, repro,
1998-12-25,-0.82, -3.03, -14.08, 2.53, 2.24, 9.91, repro,
1998-12-26,0.68, -2.45, -3.17, 2.29, 2.02, 8.77, repro,
1998-12-27,-0.83, -2.35, -15.32, 2.34, 2.06, 8.90, repro,
1998-12-28,-0.81, -3.68, -7.80, 2.42, 2.09, 9.29, repro,
1998-12-29,2.46, -2.19, -18.38, 2.46, 2.22, 9.80, repro,
1998-12-30,-0.79, -1.85, -12.66, 2.51, 2.29, 10.02, repro,
1998-12-31,0.05, -2.80, -6.11, 2.28, 2.08, 9.08, repro,
1999-01-01,0.07, -2.36, -13.64, 2.46, 2.25, 9.86, repro,
1999-01-02,-1.42, -2.30, -15.41, 2.52, 2.20, 9.74, repro,
1999-01-03,0.82, -3.50, -13.51, 2.35, 2.07, 9.06, repro,
1999-01-04,-0.01, -3.52, -14.63, 2.50, 2.26, 9.85, repro,
1999-01-05,0.67, -3.41, -9.83, 2.42, 2.24, 9.74, repro,
1999-01-06,-0.75, -1.17, -9.63, 2.41, 2.09, 9.53, repro,
1999-01-07,-0.83, -1.01, -6.75, 2.35, 2.01, 9.08, repro,
1999-01-08,-2.02, -1.94, -12.81, 2.51, 2.21, 9.56, repro,
1999-01-09,-1.60, -2.74, -16.57, 2.35, 2.02, 9.08, repro,
1999-01-10,0.08, -1.46, -13.53, 2.35, 1.99, 9.27, repro,
1999-01-11,-0.37, -2.29, -17.29, 2.41, 2.06, 9.50, repro,
1999-01-12,-1.26, -3.04, -1.49, 2.29, 2.03, 8.81, repro,
1999-01-13,-1.63, -1.18, -6.73, 2.36, 1.95, 8.87, repro,
1999-01-14,-1.68, -2.81, -2.97, 2.68, 2.17, 9.95, repro,
1999-01-15,0.55, -2.34, -8.78, 2.38, 2.05, 9.25, repro,
1999-01-16,-0.49, -0.78, -4.46, 2.43, 2.08, 9.35, repro,
1999-01-17,-1.38, -2.18, -9.67, 2.23, 1.93, 8.52, repro,
1999-01-18,-1.35, -0.51, -10.52, 2.24, 1.91, 8.50, repro,
1999-01-19,-0.45, -1.62, -4.09, 2.29, 2.03, 8.83, repro,
1999-01-20,-0.22, -2.87, -22.11, 2.33, 1.98, 8.97, repro,
1999-01-21,0.76, 1.89, -14.65, 2.39, 2.06, 9.26, repro,
1999-01-22,-1.77, -2.03, -17.50, 2.29, 1.98, 8.85, repro,
1999-01-23,-0.27, -4.07, -2.33, 2.46, 2.13, 9.48, repro,
1999-01-24,0.74, -2.05, -26.26, 2.35, 1.98, 9.04, repro,
1999-01-25,1.73, -1.57, -5.44, 2.40, 2.04, 9.37, repro,
1999-01-26,0.28, -0.10, -2.91, 2.52, 2.02, 9.68, repro,
1999-01-27,1.19, -2.52, -17.55, 2.38, 1.92, 8.87, repro,
1999-01-28,0.33, -2.39, -10.61, 2.28, 1.94, 8.67, repro,
1999-01-29,-0.86, -2.09, 1.07, 2.35, 1.97, 8.95, repro,
1999-01-30,1.34, -2.32, -8.67, 2.52, 2.14, 9.89, repro,
1999-01-31,0.33, 0.42, -3.66, 2.39, 2.05, 9.38, repro,
1999-02-01,0.85, -3.33, -13.72, 2.20, 1.86, 8.31, repro,
1999-02-02,-0.97, -1.36, -3.74, 2.41, 1.99, 9.33, repro,
1999-02-03,-1.73, -1.66, 1.72, 2.39, 1.99, 9.12, repro,
1999-02-04,0.79, -4.03, 7.93, 2.49, 2.06, 9.19, repro,